Location: Newark
(45.7812°N, 4.7054°E)
Time: 11:46:58
(UTC+00:00)

Envisat - Visible Passes

Search period start: 26 January 2020 00:00
Search period end: 05 February 2020 00:00
Orbit: 764 x 766 km, 98.1° (Epoch: 26 January)

Date Brightness Start Highest point End Pass type
(mag) Time Alt. Az. Time Alt. Az. Time Alt. Az.
26 Jan 5.2 05:36:47 10° NE 05:41:10 29° E 05:45:32 10° SSE visible
26 Jan 5.4 18:33:29 10° SW 18:37:30 23° W 18:41:34 10° NW visible
27 Jan 6.2 05:01:30 10° ENE 05:03:59 14° E 05:06:29 10° ESE visible
27 Jan 4.0 17:55:35 10° S 18:00:29 49° W 18:05:26 10° NNW visible
28 Jan 4.1 06:01:53 10° NNE 06:06:49 48° E 06:11:42 10° S visible
28 Jan 3.0 17:18:36 10° SSE 17:23:40 80° ENE 17:28:46 10° N visible
28 Jan 6.2 19:00:44 10° WSW 19:03:18 14° W 19:05:52 10° WNW visible
29 Jan 5.6 05:25:45 10° NE 05:29:47 23° E 05:33:47 10° SE visible
29 Jan 5.1 18:21:44 10° SSW 18:26:08 29° W 18:30:32 10° NW visible
30 Jan 6.5 04:51:35 10° ENE 04:52:32 10° E 04:53:30 10° E visible
30 Jan 3.2 06:27:14 10° NNE 06:32:21 82° ESE 06:37:26 10° SSW visible
30 Jan 3.6 17:44:09 10° S 17:49:10 62° W 17:54:13 10° NNW visible
31 Jan 4.6 05:50:42 10° NNE 05:55:28 38° E 06:00:11 10° SSE visible
31 Jan 5.9 18:48:32 10° SW 18:51:52 17° W 18:55:13 10° NW visible
01 Feb 5.9 05:14:50 10° NE 05:18:22 19° E 05:21:53 10° SE visible
01 Feb 4.7 18:10:06 10° SSW 18:14:45 36° W 18:19:27 10° NNW visible
02 Feb 3.5 06:15:58 10° NNE 06:21:03 66° ESE 06:26:06 10° S visible
02 Feb 3.2 17:32:46 10° S 17:37:51 77° WSW 17:42:57 10° NNW visible
03 Feb 5.1 05:39:35 10° NNE 05:44:06 31° E 05:48:35 10° SSE visible
03 Feb 5.6 18:36:35 10° SW 18:40:27 22° W 18:44:21 10° NW visible
04 Feb 6.2 05:04:06 10° NE 05:06:57 15° E 05:09:46 10° ESE visible
04 Feb 4.3 17:58:33 10° S 18:03:24 45° W 18:08:18 10° NNW visible
